Home > Weather > Germany > Jena > Past weeks

Flag for Germany Weather past 2 weeks in Jena, Thuringia, Germany

45 °F

Broken clouds.

Feels Like: 40 °F
Forecast: 42 / 49 °F
Wind: 9 mph from Northwest

Location: Erfurt-Bindersleben

Current Time: Dec 1, 2015 at 1:56:46 PM

Latest Report: Dec 1, 2015 at 1:20 PM

Visibility: N/A

Pressure: 30.18 "Hg

Humidity: 76%

Dew point: 37 °F

Location of JenaLocation

Historic Weather in Jena — Graph


Jena temperature yesterday

Maximum temperature yesterday: 48 °F (at 12:50 AM)
Minimum temperature yesterday: 43 °F (at 7:50 AM)
Average temperature yesterday: 45 °F

Past Weeks' High & Low Weather Summary

High57 °F (Nov 17, 1:20 PM)100% (Nov 21, 10:20 PM)30.24 "Hg (Nov 21, 10:20 PM)
Low23 °F (Nov 27, 6:50 AM)58% (Nov 18, 11:50 AM)29.39 "Hg (Nov 21, 4:50 AM)
Average40 °F83%29.83 "Hg
* Reported Nov 16 12:20 PM — Dec 1 12:20 PM, Jena, Weather by CustomWeather, © 2015

Note: Actual official high and low records may vary slightly from our data, if they occured in-between our weather recording intervals... More about our weather records


Jena weather history for previous 24 hours

Time TempWeatherWind HumidityBarometerVisibility
12:20 PM
Tue, Dec 1
45 °FPartly sunny.9 mph76%30.18 "HgN/A
11:50 AM43 °FPartly sunny.10 mph81%30.18 "HgN/A
11:20 AM43 °FPartly sunny.10 mph81%30.18 "HgN/A
10:50 AM43 °FPartly sunny.10 mph81%30.18 "HgN/A
10:20 AM43 °FPartly sunny.12 mph81%30.15 "HgN/A
9:50 AM43 °FScattered clouds.13 mph81%30.15 "HgN/A
7:50 AM43 °FPassing clouds.9 mph87%30.09 "HgN/A
7:20 AM43 °FPartly cloudy.9 mph87%30.09 "HgN/A
6:50 AM43 °FPartly cloudy.10 mph87%30.07 "HgN/A
6:20 AM45 °FPassing clouds.18 mph81%30.07 "HgN/A
5:50 AM45 °FPassing clouds.20 mph87%30.04 "HgN/A
5:20 AM46 °FPassing clouds.15 mph87%30.04 "HgN/A
4:50 AM48 °FPassing clouds.21 mph82%29.98 "HgN/A
4:20 AM50 °FLight rain. Passing clouds.16 mph88%29.98 "HgN/A
3:50 AM50 °FLight rain. Passing clouds.23 mph88%29.95 "HgN/A
3:20 AM50 °FLight rain. Passing clouds.28 mph88%29.89 "HgN/A
2:50 AM50 °FPassing clouds.26 mph88%29.89 "HgN/A
1:20 AM48 °FPassing clouds.29 mph94%29.83 "HgN/A
12:50 AM48 °FLight rain. Passing clouds.29 mph87%29.80 "HgN/A
12:20 AM48 °FPassing clouds.33 mph87%29.80 "HgN/A
11:50 PM
Mon, Nov 30
48 °FPassing clouds.30 mph87%29.80 "HgN/A
11:20 PM48 °FLight rain. Passing clouds.30 mph87%29.80 "HgN/A
10:50 PM48 °FLight rain. Passing clouds.29 mph82%29.80 "HgN/A
10:20 PM48 °FLight rain. Passing clouds.29 mph82%29.80 "HgN/A
9:50 PM48 °FCool.29 mph82%29.80 "HgN/A
9:20 PM48 °FLight rain. Passing clouds.28 mph82%29.80 "HgN/A
8:50 PM48 °FLight rain. Passing clouds.31 mph82%29.80 "HgN/A
7:50 PM48 °FLight rain. Passing clouds.23 mph82%29.83 "HgN/A
7:20 PM48 °FLight rain. Passing clouds.22 mph82%29.83 "HgN/A
6:50 PM48 °FLight rain. Partly cloudy.25 mph82%29.86 "HgN/A
6:20 PM48 °FLight rain. Passing clouds.23 mph82%29.86 "HgN/A
5:50 PM48 °FLight rain. Passing clouds.23 mph82%29.86 "HgN/A
5:20 PM48 °FLight rain. Passing clouds.21 mph82%29.86 "HgN/A
4:50 PM45 °FLight rain. Passing clouds.9 mph93%29.89 "HgN/A
4:20 PM43 °FLight rain. Overcast.9 mph93%29.89 "HgN/A
3:50 PM43 °FLight rain. Overcast.9 mph93%29.92 "HgN/A
3:20 PM43 °FLight rain. Overcast.7 mph87%29.95 "HgN/A
2:50 PM43 °FLight rain. Partly sunny.12 mph87%29.95 "HgN/A
2:20 PM43 °FLight rain. Mostly cloudy.13 mph81%29.98 "HgN/A
1:50 PM45 °FLight rain. Overcast.15 mph71%30.01 "HgN/A
1:20 PM45 °FLight rain. Overcast.16 mph71%30.01 "HgN/A
Weather by CustomWeather, © 2015

See weather overviewHow to use our weather pages